TVF69UZ LFPO-LEMH

Flight info

Callsign TVF69UZ
Flight time 1h 25m
Altitude 39000
Route ERIXU2G ERIXU DCT ETAMO DCT VALKU DCT ATSUP DCT MINSO DCT DEGOL DCT PPG DCT ALBER P84 GIR N727 SARGO SARGO6F
Aircraft B738/M-SDE2E3FGHIRWXY/LB1

Departure

Time 2026-04-20 12:41
Airport Paris-Orly Airport (LFPO)

Arrival

Time 2026-04-20 14:07
Airport Menorca Airport (LEMH)
Time Latitude Longitude Altitude Speed Heading
2026-04-20 12:17 48.72730 2.36838 295 ft 0 kts 22°
2026-04-20 12:32 48.72729 2.36837 296 ft 2 kts 22°
2026-04-20 12:32 48.72705 2.36823 303 ft 4 kts 19°
2026-04-20 12:32 48.72680 2.36812 302 ft 4 kts 12°
2026-04-20 12:33 48.72653 2.36806 301 ft 4 kts 356°
2026-04-20 12:33 48.72632 2.36814 303 ft 4 kts 293°
2026-04-20 12:33 48.72630 2.36821 302 ft 1 kts 251°
2026-04-20 12:37 48.72625 2.36800 305 ft 7 kts 251°
2026-04-20 12:37 48.72597 2.36685 288 ft 17 kts 247°
2026-04-20 12:37 48.72556 2.36499 288 ft 19 kts 255°
2026-04-20 12:37 48.72521 2.36309 285 ft 18 kts 254°
2026-04-20 12:38 48.72488 2.36128 291 ft 18 kts 254°
2026-04-20 12:38 48.72469 2.35947 287 ft 17 kts 274°
2026-04-20 12:38 48.72477 2.35766 287 ft 18 kts 262°
2026-04-20 12:38 48.72423 2.35623 287 ft 16 kts 193°
2026-04-20 12:39 48.72218 2.35607 286 ft 14 kts 165°
2026-04-20 12:39 48.72122 2.35644 286 ft 14 kts 162°
2026-04-20 12:39 48.72043 2.35723 289 ft 15 kts 130°
2026-04-20 12:40 48.71983 2.35875 288 ft 18 kts 119°
2026-04-20 12:40 48.71973 2.36034 291 ft 0 kts 74°
2026-04-20 12:40 48.71975 2.36044 290 ft 7 kts 74°
2026-04-20 12:40 48.72057 2.36482 291 ft 82 kts 75°
2026-04-20 12:41 48.72267 2.37616 285 ft 146 kts 72°
2026-04-20 12:41 48.72589 2.39395 526 ft 186 kts 75°
2026-04-20 12:41 48.72935 2.41380 1076 ft 208 kts 74°
2026-04-20 12:41 48.73313 2.43635 1596 ft 228 kts 74°
2026-04-20 12:42 48.73697 2.45953 2426 ft 231 kts 73°
2026-04-20 12:42 48.74137 2.48362 3189 ft 242 kts 79°
2026-04-20 12:42 48.74220 2.50922 3913 ft 252 kts 87°
2026-04-20 12:42 48.74273 2.53577 4814 ft 252 kts 86°
2026-04-20 12:43 48.74244 2.56275 5667 ft 257 kts 99°
2026-04-20 12:43 48.73494 2.58755 6369 ft 270 kts 128°
2026-04-20 12:43 48.71992 2.60526 7028 ft 283 kts 156°
2026-04-20 12:43 48.70037 2.61099 7708 ft 291 kts 186°
2026-04-20 12:44 48.68066 2.60466 8552 ft 291 kts 200°
2026-04-20 12:44 48.66148 2.59417 9292 ft 296 kts 204°
2026-04-20 12:44 48.64263 2.58273 10186 ft 295 kts 205°
2026-04-20 12:44 48.62320 2.57076 10666 ft 310 kts 205°
2026-04-20 12:45 48.60239 2.55804 10825 ft 332 kts 204°
2026-04-20 12:45 48.58052 2.54488 11086 ft 348 kts 204°
2026-04-20 12:45 48.55766 2.53136 11631 ft 354 kts 204°
2026-04-20 12:45 48.53453 2.51785 12310 ft 355 kts 204°
2026-04-20 12:46 48.51161 2.50455 13009 ft 357 kts 204°
2026-04-20 12:46 48.48821 2.49102 13680 ft 360 kts 204°
2026-04-20 12:46 48.46465 2.47743 14294 ft 363 kts 205°
2026-04-20 12:46 48.44189 2.46433 14835 ft 366 kts 205°
2026-04-20 12:47 48.41799 2.45059 15402 ft 368 kts 205°
2026-04-20 12:47 48.39396 2.43678 15945 ft 371 kts 205°
2026-04-20 12:47 48.36963 2.42282 16509 ft 374 kts 205°
2026-04-20 12:47 48.34559 2.40904 17051 ft 376 kts 205°
2026-04-20 12:48 48.32094 2.39493 17598 ft 379 kts 205°
2026-04-20 12:48 48.29609 2.38071 18138 ft 382 kts 205°
2026-04-20 12:48 48.27111 2.36644 18640 ft 385 kts 205°
2026-04-20 12:48 48.24593 2.35207 19117 ft 387 kts 206°
2026-04-20 12:49 48.22101 2.33787 19593 ft 389 kts 206°
2026-04-20 12:49 48.19561 2.32341 20035 ft 390 kts 206°
2026-04-20 12:49 48.16998 2.30884 20454 ft 393 kts 206°
2026-04-20 12:49 48.14423 2.29420 20921 ft 396 kts 207°
2026-04-20 12:50 48.11866 2.27966 21358 ft 398 kts 207°
2026-04-20 12:50 48.09210 2.26667 21780 ft 406 kts 199°
2026-04-20 12:50 48.06377 2.26041 22203 ft 416 kts 189°
2026-04-20 12:50 48.03452 2.26087 22634 ft 422 kts 184°
2026-04-20 12:51 48.00500 2.26292 23027 ft 426 kts 183°
2026-04-20 12:51 47.97525 2.26527 23387 ft 429 kts 183°
2026-04-20 12:51 47.94577 2.26761 23796 ft 430 kts 184°
2026-04-20 12:51 47.91577 2.26988 24122 ft 432 kts 184°
2026-04-20 12:52 47.88563 2.27202 24447 ft 434 kts 184°
2026-04-20 12:52 47.85532 2.27407 24774 ft 436 kts 184°
2026-04-20 12:52 47.82488 2.27606 25099 ft 437 kts 184°
2026-04-20 12:52 47.79437 2.27802 25396 ft 439 kts 184°
2026-04-20 12:53 47.76377 2.27996 25667 ft 441 kts 184°
2026-04-20 12:53 47.73344 2.28188 25953 ft 443 kts 184°
2026-04-20 12:53 47.70245 2.28384 26252 ft 445 kts 184°
2026-04-20 12:53 47.67132 2.28581 26544 ft 446 kts 184°
2026-04-20 12:54 47.64051 2.28777 26826 ft 448 kts 184°
2026-04-20 12:54 47.60928 2.28975 27105 ft 450 kts 184°
2026-04-20 12:54 47.57788 2.29174 27381 ft 451 kts 184°
2026-04-20 12:54 47.54639 2.29373 27650 ft 452 kts 184°
2026-04-20 12:55 47.51495 2.29572 27940 ft 453 kts 184°
2026-04-20 12:55 47.49400 2.29705 28108 ft 455 kts 184°
2026-04-20 12:55 47.46235 2.29904 28342 ft 457 kts 184°
2026-04-20 12:55 47.42003 2.30170 28670 ft 459 kts 184°
2026-04-20 12:56 47.39846 2.30306 28843 ft 460 kts 185°
2026-04-20 12:56 47.36683 2.30505 29085 ft 461 kts 185°
2026-04-20 12:56 47.33470 2.30706 29325 ft 461 kts 184°
2026-04-20 12:56 47.30244 2.30910 29602 ft 462 kts 184°
2026-04-20 12:57 47.27016 2.31112 29811 ft 464 kts 184°
2026-04-20 12:57 47.23819 2.31311 30002 ft 466 kts 184°
2026-04-20 12:57 47.20572 2.31514 30201 ft 468 kts 184°
2026-04-20 12:57 47.17310 2.31718 30413 ft 468 kts 184°
2026-04-20 12:58 47.14049 2.31924 30685 ft 466 kts 184°
2026-04-20 12:58 47.10846 2.32126 31022 ft 463 kts 184°
2026-04-20 12:58 47.07628 2.32329 31300 ft 462 kts 185°
2026-04-20 12:58 47.04408 2.32529 31533 ft 462 kts 185°
2026-04-20 12:59 47.01178 2.32729 31765 ft 462 kts 185°
2026-04-20 12:59 46.97969 2.32928 32032 ft 461 kts 185°
2026-04-20 12:59 46.94801 2.33126 32298 ft 460 kts 185°
2026-04-20 12:59 46.91605 2.33326 32549 ft 458 kts 185°
2026-04-20 13:00 46.88408 2.33523 32802 ft 458 kts 185°
2026-04-20 13:00 46.85254 2.33828 33002 ft 463 kts 179°
2026-04-20 13:00 46.82106 2.34780 33218 ft 472 kts 169°
2026-04-20 13:00 46.78964 2.36463 33498 ft 476 kts 165°
2026-04-20 13:01 46.75892 2.38279 33755 ft 475 kts 164°
2026-04-20 13:01 46.72829 2.40115 33962 ft 476 kts 164°
2026-04-20 13:01 46.69797 2.41922 34147 ft 476 kts 165°
2026-04-20 13:01 46.66721 2.43734 34356 ft 475 kts 165°
2026-04-20 13:02 46.63642 2.45528 34545 ft 474 kts 165°
2026-04-20 13:02 46.60604 2.47282 34704 ft 474 kts 165°
2026-04-20 13:02 46.57522 2.49052 34884 ft 474 kts 165°
2026-04-20 13:02 46.54472 2.50798 35063 ft 474 kts 165°
2026-04-20 13:03 46.51390 2.52560 35243 ft 473 kts 165°
2026-04-20 13:03 46.48321 2.54314 35426 ft 472 kts 165°
2026-04-20 13:03 46.45260 2.56061 35587 ft 472 kts 165°
2026-04-20 13:03 46.42227 2.57791 35734 ft 473 kts 165°
2026-04-20 13:04 46.39159 2.59539 35910 ft 472 kts 165°
2026-04-20 13:04 46.36121 2.61268 36081 ft 472 kts 165°
2026-04-20 13:04 46.33060 2.63009 36249 ft 471 kts 164°
2026-04-20 13:04 46.30006 2.64744 36430 ft 471 kts 164°
2026-04-20 13:05 46.26987 2.66456 36588 ft 471 kts 164°
2026-04-20 13:05 46.23928 2.68189 36726 ft 471 kts 164°
2026-04-20 13:05 46.20862 2.69924 36879 ft 471 kts 164°
2026-04-20 13:05 46.17828 2.71639 37025 ft 471 kts 164°
2026-04-20 13:06 46.14766 2.73368 37067 ft 473 kts 164°
2026-04-20 13:06 46.08650 2.76816 37060 ft 472 kts 164°
2026-04-20 13:07 46.02539 2.80257 37070 ft 470 kts 164°
2026-04-20 13:07 45.96443 2.83623 37056 ft 469 kts 165°
2026-04-20 13:08 45.90335 2.86834 37044 ft 468 kts 166°
2026-04-20 13:08 45.84239 2.90043 37052 ft 468 kts 165°
2026-04-20 13:09 45.78116 2.93279 37055 ft 468 kts 165°
2026-04-20 13:09 45.71896 2.95305 37037 ft 455 kts 183°
2026-04-20 13:10 45.65645 2.95185 37033 ft 450 kts 188°
2026-04-20 13:10 45.59364 2.94917 37025 ft 451 kts 188°
2026-04-20 13:11 45.53064 2.94705 37010 ft 452 kts 187°
2026-04-20 13:11 45.46804 2.94532 37017 ft 452 kts 187°
2026-04-20 13:12 45.40532 2.94367 37020 ft 452 kts 187°
2026-04-20 13:12 45.34213 2.94199 37005 ft 453 kts 187°
2026-04-20 13:13 45.27921 2.94031 37010 ft 454 kts 187°
2026-04-20 13:13 45.21586 2.93862 37017 ft 454 kts 187°
2026-04-20 13:14 45.15284 2.93694 36976 ft 455 kts 187°
2026-04-20 13:14 45.08944 2.93527 36999 ft 454 kts 187°
2026-04-20 13:15 45.02650 2.93362 36990 ft 454 kts 187°
2026-04-20 13:15 44.96346 2.93196 36992 ft 453 kts 187°
2026-04-20 13:16 44.90047 2.93033 36996 ft 452 kts 187°
2026-04-20 13:16 44.83772 2.92864 36991 ft 451 kts 187°
2026-04-20 13:17 44.77540 2.92457 36990 ft 449 kts 189°
2026-04-20 13:17 44.71290 2.91937 36999 ft 449 kts 189°
2026-04-20 13:18 44.65061 2.91444 36995 ft 450 kts 189°
2026-04-20 13:18 44.58785 2.90977 36986 ft 450 kts 189°
2026-04-20 13:19 44.52562 2.90527 36989 ft 450 kts 189°
2026-04-20 13:19 44.46280 2.90072 36973 ft 450 kts 189°
2026-04-20 13:20 44.40048 2.89622 36988 ft 450 kts 189°
2026-04-20 13:20 44.33810 2.89172 36985 ft 449 kts 189°
2026-04-20 13:21 44.27558 2.88721 36989 ft 448 kts 189°
2026-04-20 13:21 44.21348 2.88275 36991 ft 448 kts 189°
2026-04-20 13:22 44.15148 2.87829 36991 ft 447 kts 189°
2026-04-20 13:22 44.08909 2.87383 36994 ft 447 kts 188°
2026-04-20 13:23 44.02691 2.86936 36985 ft 447 kts 189°
2026-04-20 13:23 43.96486 2.86496 36974 ft 447 kts 188°
2026-04-20 13:24 43.90299 2.86058 36990 ft 446 kts 188°
2026-04-20 13:24 43.84117 2.85621 36979 ft 446 kts 188°
2026-04-20 13:25 43.77896 2.85188 36965 ft 447 kts 187°
2026-04-20 13:25 43.71679 2.85152 36974 ft 449 kts 185°
2026-04-20 13:26 43.65442 2.85312 36981 ft 449 kts 185°
2026-04-20 13:26 43.59195 2.85452 36952 ft 449 kts 185°
2026-04-20 13:27 43.52931 2.85558 36970 ft 448 kts 185°
2026-04-20 13:27 43.46723 2.85649 36967 ft 448 kts 185°
2026-04-20 13:28 43.40475 2.85742 36977 ft 448 kts 185°
2026-04-20 13:28 43.34239 2.85835 36961 ft 448 kts 185°
2026-04-20 13:29 43.28030 2.85921 36955 ft 448 kts 185°
2026-04-20 13:29 43.21778 2.86011 36965 ft 448 kts 185°
2026-04-20 13:30 43.15530 2.86102 36952 ft 448 kts 185°
2026-04-20 13:30 43.09306 2.86193 36965 ft 448 kts 185°
2026-04-20 13:31 43.03097 2.86284 36970 ft 448 kts 185°
2026-04-20 13:31 42.96827 2.86375 36958 ft 448 kts 184°
2026-04-20 13:32 42.90616 2.86466 36961 ft 447 kts 184°
2026-04-20 13:32 42.84414 2.86558 36966 ft 446 kts 184°
2026-04-20 13:33 42.78228 2.86649 36965 ft 446 kts 184°
2026-04-20 13:33 42.72026 2.86522 36968 ft 442 kts 189°
2026-04-20 13:34 42.65932 2.85736 36968 ft 441 kts 191°
2026-04-20 13:34 42.59847 2.84919 36969 ft 441 kts 190°
2026-04-20 13:35 42.53698 2.84182 36965 ft 442 kts 190°
2026-04-20 13:35 42.47577 2.83473 36977 ft 442 kts 190°
2026-04-20 13:36 42.41443 2.82756 36972 ft 442 kts 190°
2026-04-20 13:36 42.35313 2.82042 36958 ft 443 kts 189°
2026-04-20 13:37 42.29185 2.81333 36966 ft 443 kts 189°
2026-04-20 13:37 42.23045 2.80625 36964 ft 444 kts 189°
2026-04-20 13:38 42.16868 2.79915 36965 ft 444 kts 189°
2026-04-20 13:38 42.10724 2.79210 36963 ft 445 kts 189°
2026-04-20 13:39 42.04573 2.78508 36942 ft 438 kts 189°
2026-04-20 13:39 42.01547 2.78165 36523 ft 433 kts 189°
2026-04-20 13:39 41.98568 2.77822 35817 ft 436 kts 189°
2026-04-20 13:39 41.95492 2.77688 35025 ft 446 kts 179°
2026-04-20 13:40 41.92417 2.78551 34436 ft 453 kts 164°
2026-04-20 13:40 41.89584 2.80346 34056 ft 455 kts 150°
2026-04-20 13:40 41.86997 2.82792 33677 ft 451 kts 147°
2026-04-20 13:40 41.84505 2.85248 33219 ft 448 kts 147°
2026-04-20 13:41 41.81994 2.87724 32728 ft 446 kts 147°
2026-04-20 13:41 41.79483 2.90177 32257 ft 443 kts 147°
2026-04-20 13:41 41.77010 2.92567 31843 ft 440 kts 148°
2026-04-20 13:41 41.74524 2.94951 31437 ft 437 kts 148°
2026-04-20 13:42 41.72043 2.97318 31038 ft 434 kts 148°
2026-04-20 13:42 41.67171 3.01949 30261 ft 428 kts 148°
2026-04-20 13:42 41.64745 3.04253 29849 ft 426 kts 148°
2026-04-20 13:43 41.62336 3.06539 29420 ft 423 kts 148°
2026-04-20 13:43 41.59951 3.08801 28990 ft 420 kts 148°
2026-04-20 13:43 41.57582 3.11047 28564 ft 416 kts 148°
2026-04-20 13:43 41.55222 3.13283 28146 ft 413 kts 148°
2026-04-20 13:44 41.52900 3.15481 27732 ft 411 kts 148°
2026-04-20 13:44 41.50574 3.17677 27302 ft 408 kts 148°
2026-04-20 13:44 41.48229 3.19822 26895 ft 405 kts 150°
2026-04-20 13:44 41.45850 3.21814 26503 ft 402 kts 152°
2026-04-20 13:45 41.43462 3.23740 26120 ft 399 kts 152°
2026-04-20 13:45 41.41118 3.25617 25738 ft 397 kts 152°
2026-04-20 13:45 41.38762 3.27513 25362 ft 394 kts 152°
2026-04-20 13:45 41.36406 3.29421 24990 ft 392 kts 152°
2026-04-20 13:46 41.34110 3.31289 24634 ft 390 kts 152°
2026-04-20 13:46 41.31802 3.33172 24308 ft 387 kts 152°
2026-04-20 13:46 41.30279 3.34415 23981 ft 388 kts 152°
2026-04-20 13:46 41.27968 3.36300 23579 ft 388 kts 152°
2026-04-20 13:47 41.25667 3.38177 23123 ft 387 kts 152°
2026-04-20 13:47 41.23375 3.40047 22713 ft 384 kts 152°
2026-04-20 13:47 41.21127 3.41876 22328 ft 382 kts 152°
2026-04-20 13:47 41.18859 3.43718 21950 ft 379 kts 152°
2026-04-20 13:48 41.16609 3.45552 21624 ft 375 kts 152°
2026-04-20 13:48 41.14418 3.47347 21260 ft 373 kts 152°
2026-04-20 13:48 41.12214 3.49155 20894 ft 371 kts 152°
2026-04-20 13:48 41.10024 3.50948 20533 ft 369 kts 152°
2026-04-20 13:49 41.07863 3.52714 20176 ft 367 kts 152°
2026-04-20 13:49 41.05682 3.54494 19801 ft 365 kts 152°
2026-04-20 13:49 41.03512 3.56253 19445 ft 364 kts 152°
2026-04-20 13:49 41.01381 3.57974 19097 ft 362 kts 152°
2026-04-20 13:50 40.99222 3.59716 18745 ft 361 kts 152°
2026-04-20 13:50 40.97104 3.61425 18382 ft 360 kts 152°
2026-04-20 13:50 40.94958 3.63156 17970 ft 359 kts 152°
2026-04-20 13:50 40.92818 3.64883 17581 ft 358 kts 152°
2026-04-20 13:51 40.90698 3.66592 17207 ft 356 kts 152°
2026-04-20 13:51 40.88587 3.68294 16828 ft 354 kts 152°
2026-04-20 13:51 40.86483 3.69951 16602 ft 348 kts 153°
2026-04-20 13:51 40.84395 3.71493 16399 ft 341 kts 154°
2026-04-20 13:52 40.82338 3.72979 16056 ft 340 kts 154°
2026-04-20 13:52 40.80252 3.74479 15696 ft 339 kts 154°
2026-04-20 13:52 40.78184 3.75972 15374 ft 337 kts 154°
2026-04-20 13:52 40.76157 3.77441 15071 ft 335 kts 154°
2026-04-20 13:53 40.74101 3.78936 14743 ft 334 kts 154°
2026-04-20 13:53 40.72091 3.80401 14461 ft 332 kts 154°
2026-04-20 13:53 40.70063 3.81879 14141 ft 331 kts 154°
2026-04-20 13:53 40.68068 3.83334 13823 ft 330 kts 154°
2026-04-20 13:54 40.66054 3.84803 13484 ft 328 kts 153°
2026-04-20 13:54 40.64082 3.86241 13168 ft 326 kts 153°
2026-04-20 13:54 40.62089 3.87693 12828 ft 325 kts 153°
2026-04-20 13:54 40.60103 3.89139 12497 ft 324 kts 153°
2026-04-20 13:55 40.58132 3.90574 12174 ft 323 kts 153°
2026-04-20 13:55 40.56192 3.91985 11848 ft 322 kts 153°
2026-04-20 13:55 40.54224 3.93415 11540 ft 320 kts 153°
2026-04-20 13:55 40.52298 3.94814 11230 ft 319 kts 153°
2026-04-20 13:56 40.50362 3.96221 11045 ft 314 kts 153°
2026-04-20 13:56 40.48467 3.97597 10979 ft 304 kts 153°
2026-04-20 13:56 40.46658 3.98910 10890 ft 296 kts 153°
2026-04-20 13:56 40.44856 4.00217 10697 ft 293 kts 153°
2026-04-20 13:57 40.43072 4.01508 10412 ft 293 kts 153°
2026-04-20 13:57 40.41302 4.02788 10136 ft 292 kts 153°
2026-04-20 13:57 40.39528 4.04071 9895 ft 288 kts 152°
2026-04-20 13:57 40.37778 4.05336 9579 ft 286 kts 152°
2026-04-20 13:58 40.36049 4.06586 9267 ft 286 kts 152°
2026-04-20 13:58 40.34300 4.07848 8957 ft 285 kts 152°
2026-04-20 13:58 40.32560 4.09104 8650 ft 284 kts 153°
2026-04-20 13:58 40.30850 4.10337 8350 ft 284 kts 153°
2026-04-20 13:59 40.29111 4.11590 8050 ft 283 kts 153°
2026-04-20 13:59 40.27383 4.12835 7754 ft 283 kts 153°
2026-04-20 13:59 40.25659 4.14076 7378 ft 282 kts 153°
2026-04-20 13:59 40.23945 4.15310 6989 ft 279 kts 153°
2026-04-20 14:00 40.22264 4.16520 6606 ft 276 kts 153°
2026-04-20 14:00 40.20582 4.17729 6212 ft 274 kts 153°
2026-04-20 14:00 40.18930 4.18916 5834 ft 271 kts 153°
2026-04-20 14:00 40.17282 4.20101 5472 ft 267 kts 152°
2026-04-20 14:01 40.15654 4.21270 5122 ft 264 kts 152°
2026-04-20 14:01 40.14068 4.22410 4791 ft 260 kts 152°
2026-04-20 14:01 40.12486 4.23543 4424 ft 257 kts 152°
2026-04-20 14:01 40.10926 4.24660 4075 ft 254 kts 152°
2026-04-20 14:02 40.09381 4.25693 3745 ft 249 kts 162°
2026-04-20 14:02 40.07702 4.25815 3464 ft 239 kts 192°
2026-04-20 14:02 40.06095 4.25422 3215 ft 231 kts 189°
2026-04-20 14:02 40.04539 4.25151 2979 ft 224 kts 188°
2026-04-20 14:03 40.03014 4.24887 2746 ft 217 kts 188°
2026-04-20 14:03 40.01547 4.24622 2607 ft 206 kts 189°
2026-04-20 14:03 40.00181 4.24372 2484 ft 193 kts 189°
2026-04-20 14:03 39.98878 4.24134 2368 ft 186 kts 189°
2026-04-20 14:04 39.97633 4.23909 2216 ft 175 kts 189°
2026-04-20 14:04 39.96479 4.23696 2133 ft 165 kts 189°
2026-04-20 14:04 39.95349 4.23489 1913 ft 161 kts 189°
2026-04-20 14:04 39.94261 4.23291 1708 ft 157 kts 189°
2026-04-20 14:05 39.93189 4.23095 1483 ft 153 kts 189°
2026-04-20 14:05 39.92141 4.22905 1296 ft 151 kts 189°
2026-04-20 14:05 39.91082 4.22755 1067 ft 152 kts 186°
2026-04-20 14:05 39.90042 4.22642 886 ft 149 kts 189°
2026-04-20 14:06 39.89028 4.22433 703 ft 147 kts 189°
2026-04-20 14:06 39.87987 4.22223 512 ft 156 kts 190°
2026-04-20 14:06 39.86918 4.22003 316 ft 150 kts 191°
2026-04-20 14:06 39.85991 4.21809 301 ft 110 kts 189°
2026-04-20 14:07 39.85453 4.21698 287 ft 53 kts 189°
2026-04-20 14:07 39.85188 4.21645 285 ft 17 kts 180°
2026-04-20 14:07 39.85134 4.21750 283 ft 15 kts 99°
2026-04-20 14:07 39.85155 4.21872 280 ft 15 kts 23°
2026-04-20 14:08 39.85256 4.21897 280 ft 14 kts
2026-04-20 14:08 39.85352 4.21916 281 ft 14 kts
2026-04-20 14:08 39.85445 4.21935 283 ft 13 kts
2026-04-20 14:08 39.85534 4.21952 285 ft 13 kts
2026-04-20 14:09 39.85621 4.21970 287 ft 13 kts
2026-04-20 14:09 39.85720 4.21990 290 ft 16 kts
2026-04-20 14:09 39.85836 4.22014 294 ft 18 kts
2026-04-20 14:09 39.85968 4.22043 295 ft 21 kts
2026-04-20 14:10 39.86130 4.22076 293 ft 25 kts
2026-04-20 14:10 39.86182 4.22214 288 ft 13 kts 93°
2026-04-20 14:10 39.86216 4.22262 287 ft 6 kts 17°
2026-04-20 14:10 39.86257 4.22274 287 ft 7 kts 11°
2026-04-20 14:11 39.86270 4.22328 286 ft 8 kts 101°
2026-04-20 14:11 39.86262 4.22392 285 ft 0 kts 99°